Tinker AFB, OK

8:28 PM CDT on April 26, 2018 (GMT -0500)
Tinker Air Force Base

Weather History for KTIK - October, 2013

Change the Weather History Date:

Friday, October 11, 2013

  Actual Average Record
Temperature  
Mean Temperature 74 °F -  
Max Temperature 84 °F 70 °F 90 °F (2015)
Min Temperature 64 °F 51 °F 43 °F (2017)
Cooling Degree Days 9    
Growing Degree Days 24 (Base 50)    
Moisture  
Dew Point 63 °F    
Average Humidity 69    
Maximum Humidity 91    
Minimum Humidity 45    
Precipitation  
Precipitation 0.00 in - - ()
Sea Level Pressure  
Sea Level Pressure 29.82 in    
Wind  
Wind Speed 16 mph (South)    
Max Wind Speed 24 mph    
Max Gust Speed 29 mph    
Visibility 10 miles    
Events      
Averages and records for this station are not official NWS values.
T = Trace of Precipitation, MM = Missing Value Source: NWS Daily Summary

Daily Weather History Graph

Daily Weather History Graph

Search for Another Location

Airport or City:

Astronomy

Oct. 11, 2013 Rise Set
Actual Time 7:32 AM CDT 6:59 PM CDT
Civil Twilight 7:07 AM CDT 7:24 PM CDT
Nautical Twilight 6:37 AM CDT 7:54 PM CDT
Astronomical Twilight 6:08 AM CDT 8:23 PM CDT
Moon 2:09 PM CDT (10/11) No Moon Set
Length of Visible Light 12h 17m
Length of Day
11h 26m
Waxing Crescent, 47% of the Moon is Illuminated
Oct 11
Waxing Crescent
Oct 11
First Quarter
Oct 18
Full
Oct 26
Last Quarter
Nov 3
New

Hourly Weather History & Observations

Time (CDT) Temp. Heat Index Dew Point Humidity Pressure Visibility Wind Dir Wind Speed Gust Speed Precip Events Conditions
12:58 AM 67.3 °F - 56.3 °F 68% 29.83 in 10.0 mi SSE 10.4 mph 19.6 mph N/A   Clear
1:58 AM 67.3 °F - 57.2 °F 70% 29.83 in 10.0 mi South 16.1 mph 24.2 mph N/A   Clear
2:58 AM 66.2 °F - 57.4 °F 73% 29.83 in 10.0 mi South 18.4 mph 25.3 mph N/A   Clear
3:58 AM 65.3 °F - 57.9 °F 77% 29.83 in 10.0 mi South 13.8 mph - N/A   Partly Cloudy
4:58 AM 65.5 °F - 59.2 °F 80% 29.83 in 10.0 mi South 18.4 mph - N/A   Partly Cloudy
5:58 AM 65.7 °F - 60.4 °F 83% 29.83 in 10.0 mi South 17.3 mph - N/A   Partly Cloudy
6:58 AM 64.9 °F - 61.2 °F 88% 29.83 in 10.0 mi South 13.8 mph - N/A   Clear
7:58 AM 64.8 °F - 62.1 °F 91% 29.84 in 10.0 mi South 18.4 mph 23.0 mph N/A   Clear
8:58 AM 67.5 °F - 63.1 °F 86% 29.83 in 10.0 mi South 19.6 mph 26.5 mph N/A   Clear
9:58 AM 70.7 °F - 64.0 °F 79% 29.84 in 10.0 mi South 20.7 mph 27.6 mph N/A   Partly Cloudy
10:58 AM 74.5 °F - 64.8 °F 72% 29.84 in 10.0 mi South 23.0 mph 26.5 mph N/A   Partly Cloudy
11:18 AM 75.2 °F - 64.4 °F 69% 29.84 in 10.0 mi SSW 18.4 mph - N/A   Mostly Cloudy
11:29 AM 75.2 °F - 64.4 °F 69% 29.84 in 10.0 mi SSW 24.2 mph 28.8 mph N/A   Scattered Clouds
11:43 AM 77.0 °F - 64.4 °F 65% 29.84 in 10.0 mi SSW 19.6 mph 26.5 mph N/A   Mostly Cloudy
11:54 AM 77.0 °F - 64.4 °F 65% 29.84 in 10.0 mi South 23.0 mph 26.5 mph N/A   Scattered Clouds
11:58 AM 76.6 °F - 63.9 °F 65% 29.83 in 10.0 mi SSW 20.7 mph 26.5 mph N/A   Scattered Clouds
12:58 PM 79.5 °F - 64.0 °F 59% 29.82 in 10.0 mi South 16.1 mph - N/A   Scattered Clouds
1:58 PM 81.9 °F 83.1 °F 63.3 °F 53% 29.80 in 10.0 mi South 13.8 mph 24.2 mph N/A   Clear
2:58 PM 83.5 °F 84.3 °F 62.2 °F 49% 29.78 in 10.0 mi South 15.0 mph 21.9 mph N/A   Clear
3:37 PM 84.2 °F 85.0 °F 62.6 °F 48% 29.79 in 10.0 mi SW 13.8 mph 26.5 mph N/A   Clear
3:58 PM 84.4 °F 85.0 °F 62.1 °F 47% 29.78 in 10.0 mi South 19.6 mph 23.0 mph N/A   Partly Cloudy
4:58 PM 84.4 °F 84.6 °F 60.8 °F 45% 29.78 in 10.0 mi SSW 15.0 mph - N/A   Clear
5:58 PM 83.3 °F 83.7 °F 61.2 °F 47% 29.78 in 10.0 mi South 11.5 mph - N/A   Clear
6:58 PM 77.7 °F - 61.5 °F 57% 29.80 in 10.0 mi South 8.1 mph - N/A   Partly Cloudy
7:58 PM 74.8 °F - 63.7 °F 68% 29.81 in 10.0 mi South 6.9 mph - N/A   Partly Cloudy
8:58 PM 72.3 °F - 64.2 °F 76% 29.83 in 10.0 mi SSE 9.2 mph - N/A   Clear
9:58 PM 73.2 °F - 67.5 °F 82% 29.84 in 10.0 mi SSE 9.2 mph - N/A   Clear
10:58 PM 73.0 °F - 67.5 °F 83% 29.85 in 10.0 mi SSE 10.4 mph - N/A   Clear
11:58 PM 71.8 °F - 67.5 °F 86% 29.86 in 10.0 mi South 11.5 mph - N/A   Clear